Regional Weather Roundup
Issued by NWS

Home | Current Version | Previous Version | Graphics & Text | Print | Product List | Glossary On
Versions: 1 2 3 4 5 6 7 8 9 10 11 12 13 14 15 16 17 18 19 20 21 22 23 24 25 26 27 28 29 30 31 32 33 34 35 36 37 38 39 40 41 42 43 44 45 46 47 48 49 50
000
ASUS43 KLSX 251710
RWRMO

WEATHER SUMMARY FOR MISSOURI
NATIONAL WEATHER SERVICE SPRINGFIELD MO
1200 PM CDT THU AUG 25 2016

NOTE: "FAIR" INDICATES FEW OR NO CLOUDS BELOW 12,000 FEET WITH NO
       SIGNIFICANT WEATHER AND/OR OBSTRUCTIONS TO VISIBILITY.
       CURRENT SKY AND/OR WEATHER CONDITIONS ARE NOT AVAILABLE FOR
       CHILLICOTHE AND FARMINGTON.

MOZ001>031-035>038-043-044-053-054-251800-
...NORTHERN AND WESTERN MISSOURI...

CITY           SKY/WX    TMP DP  RH WIND       PRES   REMARKS
KANSAS CTY INT CLOUDY    79  68  69 CALM      30.09S
KANSAS C DTWN  CLOUDY    82  70  66 SW3       30.06F
LEE`S SUMMIT   MOSUNNY   78  70  76 S5        30.09F
ST JOSEPH      PTSUNNY   73  67  81 E12       30.10R
KIRKSVILLE     CLOUDY    74  70  87 N5        30.10F

$$
MOZ066>068-077>081-088>096-101>105-251800-
...SOUTHWEST MISSOURI...

CITY           SKY/WX    TMP DP  RH WIND       PRES   REMARKS
SPRINGFIELD    CLOUDY    87  70  56 SW14      30.12F HX  92
JOPLIN         SUNNY     89  71  55 S14       30.09F HX  95
BRANSON        MOSUNNY   86  72  62 SW10      30.16S HX  92

$$
MOZ032>034-039>042-045>050-055>058-069>072-251800-
...CENTRAL MISSOURI...

CITY           SKY/WX    TMP DP  RH WIND       PRES   REMARKS
COLUMBIA       PTSUNNY   83  72  69 CALM      30.10F
JEFFERSON CITY SUNNY     84  70  62 SW5       30.08F
ROLLA          SUNNY     85  71  63 SW9       30.11F HX  90
SEDALIA        MOSUNNY   84  73  69 VRB3      30.10F HX  90
WHITEMAN AFB   MOSUNNY   81  75  83 CALM      30.08F
OSAGE BEACH    SUNNY     84  72  67 VRB6      30.11F

$$
MOZ051-052-059>065-251800-
...EAST CENTRAL MISSOURI...

CITY           SKY/WX    TMP DP  RH WIND       PRES   REMARKS
ST LOUIS INTL  MOSUNNY   90  72  55 W9        30.10R HX  97
SPIRIT OF STL  MOSUNNY   88  74  63 VRB7      30.08S HX  96
ST CHARLES     MOSUNNY   86  74  67 VRB3      30.08S HX  94

$$
MOZ072>076-082>087-097>100-106>115-251800-
...SOUTH CENTRAL AND SOUTHEAST MISSOURI...

CITY           SKY/WX    TMP DP  RH WIND       PRES   REMARKS
CAPE GIRARDEAU SUNNY     88  73  61 SW8       30.11S HX  95
FARMINGTON     SUNNY     87  73  62 VRB7      30.14S HX  94
POPLAR BLUFF   MOSUNNY   89  72  56 W5        30.11S HX  96
WEST PLAINS    MOSUNNY   87  72  60 VRB7      30.18S HX  93

$$




USA.gov is the U.S. government's official web portal to all federal, state and local government web resources and services.